Flag for Israel Weather past 2 weeks in Modi'in-Maccabim-Re'ut, Israel

Now
55 °F

Clear.


Feels Like: 55 °F
Forecast: 49 / 75 °F
Wind: 1 mph from North

Location: Ben Gurion International Airport

Current Time: Apr 19, 2015 at 2:59:35 AM

Latest Report: Apr 19, 2015 at 2:20 AM


Visibility: 10 mi

Pressure: 30.12 "Hg

Humidity: 88%

Dew point: 52 °F

Location of Modi'in-Maccabim-Re'utLocation

Historic Weather in Modi'in-Maccabim-Re'ut — Graph

°F

Modi'in-Maccabim-Re'ut temperature yesterday

Maximum temperature yesterday: 72 °F (at 11:20 AM)
Minimum temperature yesterday: 55 °F (at 5:20 AM)
Average temperature yesterday: 64 °F

Past Weeks' High & Low Weather Summary

 TemperatureHumidityPressure
High100 °F (Apr 8, 3:20 PM)94% (Apr 4, 7:20 AM)30.30 "Hg (Apr 4, 7:20 AM)
Low46 °F (Apr 12, 1:50 PM)9% (Apr 8, 3:50 PM)29.56 "Hg (Apr 9, 2:20 AM)
Average63 °F66%30.01 "Hg
* Reported Apr 4 1:20 AM — Apr 19 1:20 AM, Modi'in-Maccabim-Re'ut, Weather by CustomWeather, © 2015

Note: Actual official high and low records may vary slightly from our data, if they occured in-between our weather recording intervals... More about our weather records

Advertising

Modi'in-Maccabim-Re'ut weather history for previous 24 hours

 ConditionsComfort  
Time TempWeatherWind HumidityBarometerVisibility
1:20 AM
Sun, Apr 19
57 °FClear.3 mph82%30.15 "Hg10 mi
12:50 AM59 °FClear.6 mph82%30.15 "Hg10 mi
12:20 AM59 °FClear.3 mph82%30.15 "Hg10 mi
11:50 PM
Sat, Apr 18
59 °FClear.3 mph82%30.18 "Hg10 mi
11:20 PM61 °FClear.3 mph77%30.18 "Hg10 mi
10:50 PM61 °FClear.3 mph83%30.18 "Hg10 mi
10:20 PM63 °FClear.3 mph77%30.18 "Hg10 mi
9:50 PM63 °FClear.5 mph77%30.18 "Hg10 mi
9:20 PM63 °FClear.6 mph77%30.18 "Hg10 mi
8:50 PM63 °FClear.6 mph77%30.18 "Hg10 mi
8:20 PM64 °FClear.5 mph73%30.18 "Hg10 mi
7:50 PM64 °FSunny.5 mph73%30.15 "Hg10 mi
7:20 PM64 °FSunny.6 mph68%30.15 "Hg10 mi
6:50 PM66 °FSunny.8 mph64%30.15 "Hg10 mi
6:20 PM68 °FSunny.10 mph64%30.15 "Hg10 mi
5:50 PM68 °FSunny.12 mph60%30.15 "Hg10 mi
5:20 PM68 °FSunny.13 mph60%30.15 "Hg10 mi
4:50 PM70 °FSunny.13 mph57%30.15 "Hg10 mi
4:20 PM70 °FPassing clouds.12 mph50%30.15 "HgN/A
3:50 PM70 °FPassing clouds.13 mph57%30.15 "HgN/A
3:20 PM72 °FPassing clouds.13 mph50%30.15 "HgN/A
2:50 PM72 °FPassing clouds.12 mph50%30.15 "HgN/A
2:20 PM72 °FPassing clouds.12 mph50%30.18 "HgN/A
1:50 PM70 °FPassing clouds.13 mph57%30.18 "HgN/A
1:20 PM70 °FPassing clouds.12 mph57%30.21 "HgN/A
12:50 PM72 °FPassing clouds.7 mph57%30.21 "HgN/A
12:20 PM72 °FPassing clouds.7 mph57%30.21 "HgN/A
11:50 AM72 °FPassing clouds.5 mph47%30.21 "HgN/A
11:20 AM72 °FPassing clouds.2 mph50%30.24 "HgN/A
10:50 AM70 °FPassing clouds.2 mph53%30.24 "HgN/A
10:20 AM68 °FPassing clouds.2 mph56%30.24 "HgN/A
9:50 AM68 °FScattered clouds.1 mph60%30.24 "HgN/A
9:20 AM64 °FScattered clouds.2 mph73%30.24 "HgN/A
8:50 AM63 °FScattered clouds.2 mph73%30.24 "HgN/A
8:20 AM59 °FPartly sunny.2 mph77%30.24 "HgN/A
7:50 AM57 °FPassing clouds.6 mph77%30.24 "HgN/A
7:20 AM57 °FSunny.3 mph77%30.24 "Hg10 mi
6:50 AM57 °FPassing clouds.3 mph77%30.24 "HgN/A
6:20 AM55 °FPassing clouds.2 mph82%30.24 "HgN/A
5:50 AM57 °FPassing clouds.5 mph82%30.24 "HgN/A
5:20 AM55 °FPassing clouds.2 mph88%30.24 "Hg6 mi
4:50 AM57 °FClear.2 mph82%30.24 "Hg10 mi
4:20 AM57 °FPassing clouds.5 mph82%30.24 "HgN/A
3:50 AM57 °FPassing clouds.3 mph88%30.24 "HgN/A
3:20 AM57 °FPassing clouds.3 mph88%30.24 "HgN/A
2:50 AM57 °FPassing clouds.1 mph88%30.24 "HgN/A
2:20 AM57 °FPassing clouds.5 mph88%30.24 "HgN/A
Weather by CustomWeather, © 2015

See weather overviewHow to use our weather pages